Location: Alston School (historical)
(35.5076°N, 89.8251°W)
Time: 19:51:44
(UTC+00:00)

Cosmos 2058 Rocket - Pass Details

Date: 22 March 2026
Orbit: 604 x 632 km, 82.5° (Epoch: 21 April)

Event Time Altitude Azimuth Distance (km) Brightness Sun altitude
Rises 10:28:49 0° 156° (SSE) 2,892 6.6 -19.2°
Reaches altitude 10° 10:31:21 10° 143° (SE) 1,995 5.9 -18.7°
Maximum altitude 10:34:56 24° 89° (E) 1,292 5.5 -18.0°
Drops below altitude 10° 10:38:32 10° 35° (NE) 2,016 6.4 -17.2°
Sets 10:41:06 0° 22° (NNE) 2,930 7.0 -16.7°
